Time,TemperatureF,DewpointF,PressureIn,WindDirection,WindDirectionDegrees,WindSpeedMPH,WindSpeedGustMPH,Humidity,HourlyPrecipIn,Conditions,Clouds,dailyrainin,SoftwareType,DateUTC
2013-01-19 00:03:00,38.0,30.0,30.43,NNW,344,0.0,-999.0,73,-99.99,,,-99.99,,2013-01-19 05:03:00,
2013-01-19 00:12:00,38.0,30.0,30.43,NNW,344,0.0,-999.0,73,-99.99,,,-99.99,,2013-01-19 05:12:00,
2013-01-19 00:23:00,38.0,30.0,30.43,NNW,344,0.0,-999.0,73,-99.99,,,-99.99,,2013-01-19 05:23:00,
2013-01-19 00:33:00,38.0,30.0,30.43,NNW,344,0.0,-999.0,73,-99.99,,,-99.99,,2013-01-19 05:33:00,
2013-01-19 00:43:00,38.0,30.0,30.43,NNW,344,0.0,-999.0,73,-99.99,,,-99.99,,2013-01-19 05:43:00,
2013-01-19 00:53:00,38.0,30.0,30.43,NNW,344,0.0,-999.0,73,-99.99,,,-99.99,,2013-01-19 05:53:00,
2013-01-19 01:03:00,39.0,31.0,30.42,NNW,338,0.0,-999.0,72,-99.99,,,-99.99,,2013-01-19 06:03:00,
2013-01-19 01:12:00,39.0,31.0,30.42,NNW,338,0.0,-999.0,72,-99.99,,,-99.99,,2013-01-19 06:12:00,
2013-01-19 01:23:00,40.0,31.0,30.42,NNW,341,0.0,-999.0,70,-99.99,,,-99.99,,2013-01-19 06:23:00,
2013-01-19 01:32:00,40.0,31.0,30.42,NNW,340,0.0,-999.0,70,-99.99,,,-99.99,,2013-01-19 06:32:00,
2013-01-19 01:43:00,40.0,31.0,30.42,NNW,340,0.0,-999.0,70,-99.99,,,-99.99,,2013-01-19 06:43:00,
2013-01-19 01:53:00,40.0,31.0,30.42,NNW,341,0.0,-999.0,70,-99.99,,,-99.99,,2013-01-19 06:53:00,
2013-01-19 02:02:00,39.0,31.0,30.42,NNW,341,0.0,-999.0,72,-99.99,,,-99.99,,2013-01-19 07:02:00,
2013-01-19 02:12:00,39.0,31.0,30.42,NNW,341,0.0,-999.0,72,-99.99,,,-99.99,,2013-01-19 07:12:00,
2013-01-19 02:22:00,39.0,31.0,30.42,NNW,340,0.0,-999.0,73,-99.99,,,-99.99,,2013-01-19 07:22:00,
2013-01-19 02:33:00,39.0,31.0,30.41,NNW,340,0.0,-999.0,73,-99.99,,,-99.99,,2013-01-19 07:33:00,
2013-01-19 02:43:00,39.0,31.0,30.41,NNW,340,0.0,-999.0,73,-99.99,,,-99.99,,2013-01-19 07:43:00,
2013-01-19 02:53:00,38.0,31.0,30.41,NNW,341,0.0,-999.0,75,-99.99,,,-99.99,,2013-01-19 07:53:00,
2013-01-19 03:02:00,38.0,31.0,30.41,NNW,340,0.0,-999.0,76,-99.99,,,-99.99,,2013-01-19 08:02:00,
2013-01-19 03:12:00,38.0,31.0,30.41,NNW,340,0.0,-999.0,76,-99.99,,,-99.99,,2013-01-19 08:12:00,
2013-01-19 03:22:00,37.0,31.0,30.40,NNW,340,0.0,-999.0,79,-99.99,,,-99.99,,2013-01-19 08:22:00,
2013-01-19 03:32:00,37.0,31.0,30.40,NNW,340,0.0,-999.0,80,-99.99,,,-99.99,,2013-01-19 08:32:00,
2013-01-19 03:43:00,37.0,31.0,30.40,NNW,340,0.0,-999.0,80,-99.99,,,-99.99,,2013-01-19 08:43:00,
2013-01-19 03:53:00,36.0,31.0,30.40,NNW,340,0.0,-999.0,81,-99.99,,,-99.99,,2013-01-19 08:53:00,
2013-01-19 04:02:00,36.0,31.0,30.40,NNW,341,0.0,-999.0,82,-99.99,,,-99.99,,2013-01-19 09:02:00,
2013-01-19 04:12:00,36.0,31.0,30.40,NNW,341,0.0,-999.0,82,-99.99,,,-99.99,,2013-01-19 09:12:00,
2013-01-19 04:23:00,36.0,31.0,30.40,NNW,340,0.0,-999.0,83,-99.99,,,-99.99,,2013-01-19 09:23:00,
2013-01-19 04:33:00,36.0,31.0,30.40,NNW,340,0.0,-999.0,83,-99.99,,,-99.99,,2013-01-19 09:33:00,
2013-01-19 04:42:00,36.0,31.0,30.40,NNW,340,0.0,-999.0,83,-99.99,,,-99.99,,2013-01-19 09:42:00,
2013-01-19 04:53:00,35.0,31.0,30.39,NNW,341,0.0,-999.0,85,-99.99,,,-99.99,,2013-01-19 09:53:00,
2013-01-19 05:02:00,35.0,31.0,30.39,NNW,341,0.0,-999.0,86,-99.99,,,-99.99,,2013-01-19 10:02:00,
2013-01-19 05:12:00,35.0,31.0,30.39,NNW,341,0.0,-999.0,86,-99.99,,,-99.99,,2013-01-19 10:12:00,
2013-01-19 05:22:00,35.0,32.0,30.39,NNW,341,0.0,-999.0,87,-99.99,,,-99.99,,2013-01-19 10:22:00,
2013-01-19 05:32:00,35.0,32.0,30.39,NNW,340,0.0,-999.0,88,-99.99,,,-99.99,,2013-01-19 10:32:00,
2013-01-19 05:43:00,35.0,32.0,30.39,NNW,340,0.0,-999.0,88,-99.99,,,-99.99,,2013-01-19 10:43:00,
2013-01-19 05:53:00,35.0,32.0,30.39,NNW,340,0.0,-999.0,88,-99.99,,,-99.99,,2013-01-19 10:53:00,
2013-01-19 06:03:00,35.0,32.0,30.39,NNW,341,0.0,-999.0,88,-99.99,,,-99.99,,2013-01-19 11:03:00,
2013-01-19 06:12:00,35.0,32.0,30.39,NNW,341,0.0,-999.0,88,-99.99,,,-99.99,,2013-01-19 11:12:00,
2013-01-19 06:16:00,35.0,32.0,30.40,NNW,341,0.0,-999.0,89,-99.99,,,-99.99,,2013-01-19 11:16:00,
2013-01-19 07:48:00,35.0,32.0,30.40,NNW,341,0.0,-999.0,87,-99.99,,,-99.99,,2013-01-19 12:48:00,
2013-01-19 08:03:00,35.0,32.0,30.41,NNW,341,0.0,-999.0,87,-99.99,,,-99.99,,2013-01-19 13:03:00,
2013-01-19 08:12:00,35.0,32.0,30.41,NNW,341,0.0,-999.0,87,-99.99,,,-99.99,,2013-01-19 13:12:00,
2013-01-19 08:22:00,35.0,31.0,30.41,NNW,340,0.0,-999.0,86,-99.99,,,-99.99,,2013-01-19 13:22:00,
2013-01-19 08:33:00,36.0,32.0,30.40,NNW,341,0.0,-999.0,85,-99.99,,,-99.99,,2013-01-19 13:33:00,
2013-01-19 08:43:00,36.0,32.0,30.40,NNW,341,0.0,-999.0,85,-99.99,,,-99.99,,2013-01-19 13:43:00,
2013-01-19 08:53:00,37.0,32.0,30.41,NNW,340,0.0,-999.0,82,-99.99,,,-99.99,,2013-01-19 13:53:00,
2013-01-19 09:03:00,38.0,33.0,30.41,NNW,340,0.0,-999.0,81,-99.99,,,-99.99,,2013-01-19 14:03:00,
2013-01-19 09:12:00,38.0,33.0,30.41,NNW,340,0.0,-999.0,81,-99.99,,,-99.99,,2013-01-19 14:12:00,
2013-01-19 09:23:00,40.0,34.0,30.42,NW,325,0.0,-999.0,78,-99.99,,,-99.99,,2013-01-19 14:23:00,
2013-01-19 09:34:00,43.0,35.0,30.42,NW,317,1.0,-999.0,74,-99.99,,,-99.99,,2013-01-19 14:34:00,
2013-01-19 09:43:00,43.0,35.0,30.42,NW,317,1.0,-999.0,74,-99.99,,,-99.99,,2013-01-19 14:43:00,
2013-01-19 09:53:00,45.0,35.0,30.42,NW,325,0.0,-999.0,68,-99.99,,,-99.99,,2013-01-19 14:53:00,
2013-01-19 10:03:00,45.0,35.0,30.42,NW,325,0.0,-999.0,68,-99.99,,,-99.99,,2013-01-19 15:03:00,
2013-01-19 10:13:00,45.0,35.0,30.42,NW,325,0.0,-999.0,68,-99.99,,,-99.99,,2013-01-19 15:13:00,
2013-01-19 10:23:00,48.0,34.0,30.43,NW,326,0.0,-999.0,59,-99.99,,,-99.99,,2013-01-19 15:23:00,
2013-01-19 10:33:00,49.0,34.0,30.42,East,92,1.0,-999.0,55,-99.99,,,-99.99,,2013-01-19 15:33:00,
2013-01-19 10:43:00,49.0,34.0,30.42,East,92,1.0,-999.0,55,-99.99,,,-99.99,,2013-01-19 15:43:00,
2013-01-19 10:53:00,51.0,36.0,30.42,NW,314,1.0,-999.0,56,-99.99,,,-99.99,,2013-01-19 15:53:00,
2013-01-19 11:03:00,52.0,35.0,30.41,ENE,61,1.0,-999.0,53,-99.99,,,-99.99,,2013-01-19 16:03:00,
2013-01-19 11:13:00,52.0,35.0,30.41,ENE,61,1.0,-999.0,53,-99.99,,,-99.99,,2013-01-19 16:13:00,
2013-01-19 11:23:00,53.0,37.0,30.40,ENE,60,0.0,-999.0,54,-99.99,,,-99.99,,2013-01-19 16:23:00,
2013-01-19 11:33:00,54.0,39.0,30.39,NW,310,1.0,-999.0,56,-99.99,,,-99.99,,2013-01-19 16:33:00,
2013-01-19 11:43:00,54.0,39.0,30.39,NW,310,1.0,-999.0,56,-99.99,,,-99.99,,2013-01-19 16:43:00,
2013-01-19 11:54:00,55.0,39.0,30.39,SSE,164,0.0,-999.0,54,-99.99,,,-99.99,,2013-01-19 16:54:00,
2013-01-19 12:03:00,55.0,39.0,30.37,South,169,0.0,-999.0,55,-99.99,,,-99.99,,2013-01-19 17:03:00,
2013-01-19 12:20:00,55.0,39.0,30.37,South,169,0.0,-999.0,55,-99.99,,,-99.99,,2013-01-19 17:20:00,
2013-01-19 12:29:00,55.0,40.0,30.36,South,169,0.0,-999.0,56,-99.99,,,-99.99,,2013-01-19 17:29:00,
2013-01-19 12:35:00,55.0,41.0,30.34,SSE,166,0.0,-999.0,58,-99.99,,,-99.99,,2013-01-19 17:35:00,
2013-01-19 12:48:00,55.0,41.0,30.34,SSE,166,0.0,-999.0,58,-99.99,,,-99.99,,2013-01-19 17:48:00,
2013-01-19 13:12:00,58.0,43.0,30.31,West,277,1.0,-999.0,58,-99.99,,,-99.99,,2013-01-19 18:12:00,
2013-01-19 13:29:00,59.0,42.0,30.29,WNW,295,0.0,-999.0,54,-99.99,,,-99.99,,2013-01-19 18:29:00,
2013-01-19 13:45:00,60.0,43.0,30.29,SSW,194,1.0,-999.0,54,-99.99,,,-99.99,,2013-01-19 18:45:00,
2013-01-19 14:02:00,61.0,44.0,30.28,NNW,335,0.0,-999.0,54,-99.99,,,-99.99,,2013-01-19 19:02:00,
2013-01-19 14:09:00,61.0,44.0,30.27,WNW,298,0.0,-999.0,54,-99.99,,,-99.99,,2013-01-19 19:09:00,
2013-01-19 14:20:00,61.0,44.0,30.27,WNW,298,0.0,-999.0,54,-99.99,,,-99.99,,2013-01-19 19:20:00,
2013-01-19 14:39:00,62.0,45.0,30.26,SSW,194,0.0,-999.0,54,-99.99,,,-99.99,,2013-01-19 19:39:00,
2013-01-19 14:47:00,62.0,45.0,30.26,SSW,194,0.0,-999.0,54,-99.99,,,-99.99,,2013-01-19 19:47:00,
2013-01-19 14:59:00,62.0,46.0,30.25,SE,134,0.0,-999.0,55,-99.99,,,-99.99,,2013-01-19 19:59:00,
2013-01-19 15:10:00,63.0,48.0,30.24,SE,139,0.0,-999.0,57,-99.99,,,-99.99,,2013-01-19 20:10:00,
2013-01-19 15:19:00,63.0,48.0,30.24,SE,139,0.0,-999.0,57,-99.99,,,-99.99,,2013-01-19 20:19:00,
2013-01-19 15:25:00,63.0,48.0,30.23,SSE,150,0.0,-999.0,57,-99.99,,,-99.99,,2013-01-19 20:25:00,
2013-01-19 15:38:00,63.0,48.0,30.23,SSE,152,0.0,-999.0,58,-99.99,,,-99.99,,2013-01-19 20:38:00,
2013-01-19 15:48:00,63.0,48.0,30.23,SSE,152,0.0,-999.0,58,-99.99,,,-99.99,,2013-01-19 20:48:00,
2013-01-19 15:59:00,63.0,48.0,30.23,SE,144,0.0,-999.0,58,-99.99,,,-99.99,,2013-01-19 20:59:00,
2013-01-19 16:07:00,64.0,48.0,30.22,SE,144,0.0,-999.0,57,-99.99,,,-99.99,,2013-01-19 21:07:00,
2013-01-19 16:14:00,64.0,48.0,30.22,SE,144,0.0,-999.0,57,-99.99,,,-99.99,,2013-01-19 21:14:00,
2013-01-19 16:44:00,63.0,48.0,30.21,WSW,240,0.0,-999.0,59,-99.99,,,-99.99,,2013-01-19 21:44:00,
2013-01-19 16:50:00,63.0,48.0,30.21,WSW,240,0.0,-999.0,59,-99.99,,,-99.99,,2013-01-19 21:50:00,
2013-01-19 17:00:00,63.0,48.0,30.21,WSW,238,0.0,-999.0,59,-99.99,,,-99.99,,2013-01-19 22:00:00,
2013-01-19 17:14:00,63.0,49.0,30.21,SW,230,0.0,-999.0,61,-99.99,,,-99.99,,2013-01-19 22:14:00,
2013-01-19 17:27:00,62.0,49.0,30.21,SSE,167,0.0,-999.0,63,-99.99,,,-99.99,,2013-01-19 22:27:00,
2013-01-19 17:35:00,61.0,50.0,30.22,SSE,163,0.0,-999.0,66,-99.99,,,-99.99,,2013-01-19 22:35:00,
2013-01-19 17:48:00,61.0,50.0,30.22,SSE,163,0.0,-999.0,66,-99.99,,,-99.99,,2013-01-19 22:48:00,
2013-01-19 17:58:00,60.0,50.0,30.22,SSE,167,0.0,-999.0,69,-99.99,,,-99.99,,2013-01-19 22:58:00,
2013-01-19 18:13:00,58.0,49.0,30.22,SE,141,0.0,-999.0,73,-99.99,,,-99.99,,2013-01-19 23:13:00,
2013-01-19 18:26:00,57.0,48.0,30.22,SE,141,0.0,-999.0,73,-99.99,,,-99.99,,2013-01-19 23:26:00,
2013-01-19 18:46:00,56.0,49.0,30.22,SE,141,0.0,-999.0,76,-99.99,,,-99.99,,2013-01-19 23:46:00,
2013-01-19 19:08:00,56.0,49.0,30.22,SE,141,0.0,-999.0,77,-99.99,,,-99.99,,2013-01-20 00:08:00,
2013-01-19 19:15:00,54.0,48.0,30.23,SE,141,0.0,-999.0,79,-99.99,,,-99.99,,2013-01-20 00:15:00,
2013-01-19 19:25:00,53.0,48.0,30.23,SE,141,0.0,-999.0,82,-99.99,,,-99.99,,2013-01-20 00:25:00,
2013-01-19 19:35:00,53.0,48.0,30.23,SE,141,0.0,-999.0,83,-99.99,,,-99.99,,2013-01-20 00:35:00,
2013-01-19 19:57:00,52.0,47.0,30.23,SE,141,0.0,-999.0,84,-99.99,,,-99.99,,2013-01-20 00:57:00,
2013-01-19 20:04:00,51.0,47.0,30.23,SE,141,0.0,-999.0,86,-99.99,,,-99.99,,2013-01-20 01:04:00,
2013-01-19 20:20:00,51.0,47.0,30.23,SE,141,0.0,-999.0,86,-99.99,,,-99.99,,2013-01-20 01:20:00,
2013-01-19 20:27:00,51.0,47.0,30.23,SE,141,0.0,-999.0,87,-99.99,,,-99.99,,2013-01-20 01:27:00,
2013-01-19 20:37:00,50.0,46.0,30.23,SE,141,0.0,-999.0,87,-99.99,,,-99.99,,2013-01-20 01:37:00,
2013-01-19 20:48:00,50.0,46.0,30.23,SE,141,0.0,-999.0,87,-99.99,,,-99.99,,2013-01-20 01:48:00,
2013-01-19 21:04:00,49.0,46.0,30.23,SE,141,0.0,-999.0,89,-99.99,,,-99.99,,2013-01-20 02:04:00,
2013-01-19 21:15:00,49.0,46.0,30.23,SE,141,0.0,-999.0,89,-99.99,,,-99.99,,2013-01-20 02:15:00,
2013-01-19 21:27:00,48.0,45.0,30.22,SE,141,0.0,-999.0,91,-99.99,,,-99.99,,2013-01-20 02:27:00,
2013-01-19 21:35:00,47.0,45.0,30.22,SE,141,0.0,-999.0,91,-99.99,,,-99.99,,2013-01-20 02:35:00,
2013-01-19 21:44:00,47.0,45.0,30.22,SE,141,0.0,-999.0,91,-99.99,,,-99.99,,2013-01-20 02:44:00,
2013-01-19 21:59:00,47.0,45.0,30.22,SE,141,0.0,-999.0,92,-99.99,,,-99.99,,2013-01-20 02:59:00,
2013-01-19 22:08:00,46.0,44.0,30.22,SE,141,0.0,-999.0,92,-99.99,,,-99.99,,2013-01-20 03:08:00,
2013-01-19 22:25:00,46.0,44.0,30.22,SE,141,0.0,-999.0,93,-99.99,,,-99.99,,2013-01-20 03:25:00,
2013-01-19 22:38:00,46.0,44.0,30.21,SE,141,0.0,-999.0,93,-99.99,,,-99.99,,2013-01-20 03:38:00,
2013-01-19 22:45:00,46.0,44.0,30.21,SE,141,0.0,-999.0,93,-99.99,,,-99.99,,2013-01-20 03:45:00,
2013-01-19 22:58:00,46.0,44.0,30.21,SE,141,0.0,-999.0,94,-99.99,,,-99.99,,2013-01-20 03:58:00,
2013-01-19 23:05:00,46.0,44.0,30.21,SE,141,0.0,-999.0,94,-99.99,,,-99.99,,2013-01-20 04:05:00,
2013-01-19 23:15:00,46.0,44.0,30.21,SE,141,0.0,-999.0,94,-99.99,,,-99.99,,2013-01-20 04:15:00,
2013-01-19 23:36:00,45.0,43.0,30.20,SE,141,0.0,-999.0,94,-99.99,,,-99.99,,2013-01-20 04:36:00,
2013-01-19 23:44:00,45.0,43.0,30.20,SE,141,0.0,-999.0,94,-99.99,,,-99.99,,2013-01-20 04:44:00,
2013-01-19 23:58:00,45.0,43.0,30.19,SE,141,0.0,-999.0,94,-99.99,,,-99.99,,2013-01-20 04:58:00,